Location: ??????????
(41.2581°N, 22.8006°E)
Time: 00:02:25
(UTC+00:00)

GEOS 3 Rocket - Pass Details

Date: 17 March 2026
Orbit: 767 x 846 km, 115.0° (Epoch: 13 April)

Event Time Altitude Azimuth Distance (km) Brightness Sun altitude
Rises 02:17:42 0° 40° (NE) 3,412 7.8 -26.5°
Reaches altitude 10° 02:20:07 10° 45° (NE) 2,471 7.0 -26.1°
Maximum altitude 02:25:21 51° 121° (ESE) 1,043 4.3 -25.2°
Enters shadow 02:27:33 32° 179° (S) 1,401 4.6 -24.8°
